User: anonymous   Login
Location: Amsterdam
(30.7274°N, 84.4357°W)
Time: 12:06:24
(UTC+00:00)
Language:

LilacSat-2 - Orbit

View from above orbital plane
View from above orbital plane
View from above satellite
View from above satellite

Ground track
Ground track

The orbit is defined by the following mean orbital elements,

1 40908U          26074.00894258 +.00000000 +00000-0 +41589-3 0 00009
2 40908  97.4803 107.4190 0006086 221.8055 138.2730 15.48245624    04
Epoch (UTC): 15 March 2026 00:12:52
Eccentricity: 0.0006086
inclination: 97.4803°
perigee height: 418 km
apogee height: 426 km
right ascension of ascending node: 107.4190°
argument of perigee: 221.8055°
revolutions per day: 15.48245624
mean anomaly at epoch: 138.2730°

The dashed part of the orbit path shows where the satellite is in the earth's shadow,  

DLR